Location: ?
(35.4996°N, 139.3166°E)
Time: 10:03:09
(UTC+00:00)

Spot 2 Rocket - Visible Passes

Search period start: 24 July 2024 00:00
Search period end: 03 August 2024 00:00
Orbit: 754 x 769 km, 98.4° (Epoch: 23 July)

Date Brightness Start Highest point End Pass type
(mag) Time Alt. Az. Time Alt. Az. Time Alt. Az.
24 Jul 5.6 10:37:36 10° ENE 10:38:25 10° ENE 10:39:15 10° NE visible
24 Jul 3.4 12:15:38 60° S 12:16:35 83° WSW 12:21:42 10° NNW visible
25 Jul 4.1 11:37:27 33° ESE 11:38:56 41° ENE 11:43:41 10° N visible
25 Jul 5.4 13:17:34 19° W 13:17:58 20° W 13:21:37 10° NW visible
26 Jul 5.2 10:59:16 14° E 11:01:29 18° ENE 11:04:50 10° NNE visible
26 Jul 4.1 12:39:24 45° WSW 12:39:59 47° W 12:44:54 10° NNW visible
27 Jul 3.4 12:01:13 55° SE 12:02:12 71° ENE 12:07:16 10° N visible
27 Jul 6.1 13:41:21 11° W 13:41:33 11° W 13:42:45 10° WNW visible
28 Jul 4.5 11:23:02 25° E 11:24:37 30° ENE 11:28:59 10° N visible
28 Jul 5.0 13:03:10 27° WSW 13:03:27 27° W 13:07:45 10° NW visible
29 Jul 5.5 10:45:00 10° E 10:47:14 13° ENE 10:49:29 10° NE visible
29 Jul 3.6 12:24:59 62° SW 12:25:32 67° WSW 12:30:37 10° NNW visible
30 Jul 3.8 11:46:49 43° ESE 11:47:50 50° ENE 11:52:44 10° N visible
30 Jul 5.7 13:26:56 16° W 13:26:59 16° W 13:30:00 10° NW visible
31 Jul 4.9 11:08:38 18° E 11:10:18 22° ENE 11:14:07 10° NNE visible
31 Jul 4.5 12:48:46 38° WSW 12:48:56 38° W 12:53:40 10° NNW visible
01 Aug 3.3 12:10:35 73° SSE 12:11:06 87° E 12:16:13 10° NNW visible
02 Aug 4.2 11:32:24 33° E 11:33:28 36° ENE 11:38:05 10° N visible
02 Aug 5.3 13:12:32 22° W 13:12:32 22° W 13:16:20 10° NW visible
